Weather Roundup
Issued by NWS

Home | Current Version | Previous Version | Graphics & Text | Print | Product List | Glossary Off
Versions: 1 2 3 4 5 6 7 8 9 10 11 12 13 14 15 16 17 18 19 20 21 22 23 24 25 26 27 28 29 30 31 32 33 34 35 36 37 38 39 40 41 42 43 44 45 46 47 48 49 50

000
NZUS93 KARX 301610
HRRWXR

CURRENT HOURLY OBSERVATIONS ACROSS
MUCH OF THE UPPER MISSISSIPPI VALLEY
NATIONAL WEATHER SERVICE LA CROSSE WI
1100 AM CDT SAT AUG 30 2014


...SOUTHEAST MINNESOTA...


CITY           SKY/WX    TMP DP  RH WIND       PRES   REMARKS
ROCHESTER      PTSUNNY   73  64  73 NW9       29.86R
ROCHESTER/MAYO PTSUNNY   69  63  81 W8G17     29.85R
WINONA         CLOUDY    72  68  88 N10       29.81R
AUSTIN         CLOUDY    72  64  78 NW8       29.86R
ALBERT LEA     PTSUNNY   72  66  83 N8        29.87R
DODGE CENTER   CLOUDY    72  64  78 NW10      29.86R
PRESTON        CLOUDY    70  68  95 N3        29.85R
OWATONNA       MOSUNNY   72  63  73 NW9       29.86S
FARIBAULT      MOSUNNY   75  61  60 NW7       29.86R
$$

...ELSEWHERE IN MINNESOTA...


CITY           SKY/WX    TMP DP  RH WIND       PRES   REMARKS
MINNEAPOLIS    MOSUNNY   72  62  71 N10       29.85R
INTNL FALLS    PTSUNNY   65  54  67 NE9       29.92F
DULUTH         CLOUDY    64  60  87 NE6       29.87R
RED WING       CLOUDY    70  64  83 NW7       29.83R
REDWOOD FALLS  CLOUDY    64  62  93 W10       29.90R
MANKATO        CLOUDY    72  64  78 NW9       29.87R
WORTHINGTON    CLOUDY    63  63 100 N7        29.94S
FAIRMONT       CLOUDY    64  61  88 NW12      29.90R
$$

...SOUTHWEST WISCONSIN...


CITY           SKY/WX    TMP DP  RH WIND       PRES   REMARKS
LA CROSSE      CLOUDY    72  67  84 NW9       29.80R
PRAIRIE DU CHI CLOUDY    72  67  83 W9        29.81S
BOSCOBEL       CLOUDY    71  67  87 W7        29.81R
LONE ROCK      CLOUDY    76  67  73 W12       29.80R
PLATTEVILLE    CLOUDY    71  68  93 W12G17    29.84R
FORT MC COY    CLOUDY    69  66  92 N7        29.81R
CAMP DOUGLAS   LGT RAIN  68  68 100 NW5       29.80R FOG
VIROQUA        CLOUDY    68  68 100 NW8       29.82R
WIS DELLS      LGT RAIN  71  65  83 NW6       29.79S
$$

...ELSEWHERE IN WISCONSIN...


CITY           SKY/WX    TMP DP  RH WIND       PRES   REMARKS
MILWAUKEE      MOSUNNY   78  66  66 SW14G23   29.80F
MADISON        LGT RAIN  70  67  90 SW8       29.80R FOG
GREEN BAY      CLOUDY    73  67  81 SW10G20   29.74R
EAU CLAIRE     NOT AVBL
BLACK RVR FLS  CLOUDY    68  68 100 NW5       29.80R FOG
MEDFORD        CLOUDY    68  65  89 N8        29.81R
WAUSAU         CLOUDY    71  64  78 NW6       29.77S
WIS RAPIDS     LGT RAIN  72  66  81 W7        29.80R
MARSHFIELD     CLOUDY    70  66  87 W6        29.80R
RICE LAKE      CLOUDY    64  61  90 N10       29.86R
$$

...NORTHEAST IOWA...


CITY           SKY/WX    TMP DP  RH WIND       PRES   REMARKS
WATERLOO       CLOUDY    71  66  84 W9        29.86R
DUBUQUE        PTSUNNY   73  67  81 W17       29.85R
DECORAH        CLOUDY    72  66  83 W8        29.83S
MASON CITY     PTSUNNY   72  66  81 NW9       29.89S
CHARLES CITY   CLOUDY    72  66  83 W10       29.87R
OELWEIN        CLOUDY    72  66  83 W12       29.87R
$$

...ELSEWHERE IN IOWA...


CITY           SKY/WX    TMP DP  RH WIND       PRES   REMARKS
DES MOINES     PTSUNNY   75  66  73 NW9       29.90R
IOWA CITY      CLOUDY    73  67  81 NW13      29.89R
FORT DODGE     CLOUDY    68  64  88 NW5       29.92R
MARSHALLTOWN   CLOUDY    72  67  84 W9        29.88R
CEDAR RAPIDS   CLOUDY    71  67  87 W13       29.87R
$$

...NORTHERN ILLINOIS...


CITY           SKY/WX    TMP DP  RH WIND       PRES   REMARKS
CHICAGO-OHARE  CLOUDY    76  66  71 SW17      29.86R
DUPAGE         CLOUDY    76  69  79 SW15      29.86R
CHICAGO-MIDWAY CLOUDY    79  69  71 SW17G25   29.87R
MOLINE         PTSUNNY   77  67  71 W9        29.87R
ROCKFORD       LGT RAIN  73  66  78 SW17      29.85R
STERLING       CLOUDY    73  66  78 W14       29.87R
PEORIA         CLOUDY    79  70  74 SW13      29.91R
$$

NOTE: "FAIR" INDICATES FEW OR NO CLOUDS BELOW 12,000 FEET WITH NO
SIGNIFICANT WEATHER AND/OR OBSTRUCTIONS TO VISIBILITY. WIND
SPEEDS ARE IN MILES-PER-HOUR.



USA.gov is the U.S. government's official web portal to all federal, state and local government web resources and services.